| time (UTC) | temp C | wind direction | speed KPH | gust KPH | rain 1hr cm | rain 24hr cm | rain mn cm | humidity % | barometer mb |
| 20260504213113 | 24 | 191 | 1.6 | 9.7 | 0.00 | 0.23 | 0.23 | 55 | 1003.5 |
| 20260504211548 | 23 | 215 | 1.6 | 11.3 | 0.00 | 0.23 | 0.23 | 59 | 1003.8 |
| 20260504210047 | 23 | 217 | 0.0 | 11.3 | 0.00 | 0.23 | 0.23 | 60 | 1003.8 |
| 20260504204600 | 22 | 212 | 3.2 | 12.9 | 0.00 | 0.23 | 0.23 | 62 | 1003.9 |
| 20260504203043 | 21 | 207 | 3.2 | 14.5 | 0.00 | 0.23 | 0.23 | 67 | 1004.0 |
| 20260504201542 | 20 | 213 | 3.2 | 12.9 | 0.00 | 0.23 | 0.23 | 75 | 1004.4 |
| 20260504200044 | 18 | 210 | 1.6 | 9.7 | 0.03 | 0.23 | 0.23 | 81 | 1004.5 |
| 20260504194543 | 16 | 252 | 0.0 | 4.8 | 0.13 | 0.23 | 0.23 | 87 | 1004.0 |
| 20260504193038 | 15 | 127 | 1.6 | 6.4 | 0.23 | 0.23 | 0.23 | 88 | 1004.0 |
| 20260504191540 | 15 | 154 | 0.0 | 0.0 | 0.23 | 0.23 | 0.23 | 87 | 1005.9 |
| 20260504190038 | 16 | 139 | 0.0 | 3.2 | 0.20 | 0.20 | 0.20 | 88 | 1005.5 |
| 20260504184536 | 16 | 127 | 0.0 | 1.6 | 0.10 | 0.10 | 0.10 | 84 | 1006.3 |
| 20260504183033 | 18 | 269 | 0.0 | 4.8 | 0.00 | 0.00 | 0.00 | 70 | 1006.8 |
| 20260504181530 | 18 | 287 | 1.6 | 8.0 | 0.00 | 0.00 | 0.00 | 69 | 1006.7 |
| 20260504180030 | 18 | 207 | 0.0 | 4.8 | 0.00 | 0.00 | 0.00 | 70 | 1006.2 |
| 20260504174529 | 18 | 199 | 0.0 | 3.2 | 0.00 | 0.00 | 0.00 | 70 | 1006.1 |
| 20260504173030 | 18 | 217 | 0.0 | 3.2 | 0.00 | 0.00 | 0.00 | 71 | 1006.0 |
| 20260504171528 | 18 | 217 | 0.0 | 6.4 | 0.00 | 0.00 | 0.00 | 69 | 1006.2 |
| 20260504081537 | 15 | 91 | 0.0 | 0.0 | 0.00 | 0.00 | 0.00 | 72 | 1008.6 |
| 20260504044556 | 17 | 243 | 3.2 | 11.3 | 0.00 | 0.00 | 0.00 | 60 | 1008.1 |
| 20260504043059 | 16 | 206 | 1.6 | 6.4 | 0.00 | 0.00 | 0.00 | 61 | 1008.3 |
| 20260504041554 | 17 | 226 | 0.0 | 4.8 | 0.00 | 0.00 | 0.00 | 59 | 1009.0 |
| 20260504040054 | 17 | 214 | 0.0 | 4.8 | 0.00 | 0.00 | 0.00 | 58 | 1009.2 |
| 20260504034554 | 17 | 250 | 0.0 | 6.4 | 0.00 | 0.00 | 0.00 | 57 | 1009.3 |
| 20260504033056 | 17 | 267 | 0.0 | 6.4 | 0.00 | 0.00 | 0.00 | 56 | 1009.5 |
| 20260504031553 | 18 | 276 | 1.6 | 11.3 | 0.00 | 0.00 | 0.00 | 54 | 1009.5 |
| 20260504030052 | 18 | 293 | 0.0 | 8.0 | 0.00 | 0.00 | 0.00 | 53 | 1009.4 |
| 20260504024553 | 18 | 289 | 0.0 | 6.4 | 0.00 | 0.00 | 0.00 | 51 | 1009.4 |
| 20260504023051 | 18 | 174 | 0.0 | 11.3 | 0.00 | 0.00 | 0.00 | 50 | 1009.4 |
| 20260504021552 | 19 | 225 | 1.6 | 11.3 | 0.00 | 0.00 | 0.00 | 49 | 1009.2 |
| 20260504020127 | 19 | 213 | 0.0 | 6.4 | 0.00 | 0.00 | 0.00 | 49 | 1009.0 |
| 20260504014600 | 20 | 272 | 0.0 | 8.0 | 0.00 | 0.00 | 0.00 | 48 | 1009.0 |
| 20260504013059 | 20 | 213 | 0.0 | 8.0 | 0.00 | 0.00 | 0.00 | 47 | 1008.9 |
| 20260504011549 | 20 | 214 | 0.0 | 6.4 | 0.00 | 0.00 | 0.00 | 46 | 1008.8 |
| 20260504010048 | 21 | 217 | 1.6 | 8.0 | 0.00 | 0.00 | 0.00 | 45 | 1008.7 |
| 20260504004617 | 21 | 221 | 0.0 | 6.4 | 0.00 | 0.00 | 0.00 | 43 | 1008.8 |
| 20260504003052 | 22 | 215 | 0.0 | 6.4 | 0.00 | 0.00 | 0.00 | 41 | 1008.8 |
| 20260504001616 | 22 | 149 | 0.0 | 6.4 | 0.00 | 0.00 | 0.00 | 40 | 1008.8 |
| 20260504000046 | 23 | 214 | 0.0 | 6.4 | 0.00 | 0.00 | 0.00 | 38 | 1008.8 |
| 20260503234543 | 23 | 178 | 0.0 | 4.8 | 0.00 | 0.00 | 0.00 | 38 | 1009.1 |
| 20260503233043 | 23 | 266 | 1.6 | 14.5 | 0.00 | 0.00 | 0.00 | 37 | 1009.2 |
| 20260503231541 | 24 | 189 | 1.6 | 17.7 | 0.00 | 0.00 | 0.00 | 35 | 1009.2 |
| 20260503230056 | 24 | 207 | 3.2 | 19.3 | 0.00 | 0.00 | 0.00 | 35 | 1009.3 |
| 20260503224537 | 24 | 224 | 3.2 | 14.5 | 0.00 | 0.00 | 0.00 | 35 | 1009.5 |
| 20260503223036 | 24 | 347 | 6.4 | 24.1 | 0.00 | 0.00 | 0.00 | 35 | 1009.7 |
| 20260503221535 | 24 | 250 | 4.8 | 20.9 | 0.00 | 0.00 | 0.00 | 34 | 1009.7 |
| 20260503220042 | 24 | 271 | 8.0 | 17.7 | 0.00 | 0.00 | 0.00 | 35 | 1009.9 |
| 20260503214532 | 23 | 280 | 9.7 | 20.9 | 0.00 | 0.00 | 0.00 | 34 | 1010.0 |